Location: Emblem
(62.4273°N, 6.4710°E)
Time: 10:48:53
(UTC+01:00)

Vanguard 2 - Visible Passes

Search period start: 31 January 2023 00:00
Search period end: 10 February 2023 00:00
Orbit: 553 x 2930 km, 32.9° (Epoch: 30 January)

Date Brightness Start Highest point End Pass type
(mag) Time Alt. Az. Time Alt. Az. Time Alt. Az.
31 Jan 11.4 03:36:56 12° S 03:36:56 12° S 03:38:12 10° SSE visible
01 Feb 11.5 03:52:49 11° S 03:52:49 11° S 03:53:16 10° S visible
07 Feb 11.2 21:01:12 10° S 21:01:40 10° S 21:01:40 10° S visible
08 Feb 11.2 21:16:03 10° S 21:17:34 12° S 21:17:34 12° S visible
09 Feb 11.1 21:31:26 10° S 21:33:26 13° S 21:33:26 13° S visible
